When you browse on this site, cookies collect data to enhance your experience and personalize the content and advertising you see.
Visit our Privacy Policy to learn more. By continuing to use the site, you agree to this use of cookies and data.
  • Em Portugal
  • Lista de países
  • Para 7 dias
  • Temperatura da água
  • Mapas de satélite
  • Mapa do tempo
  • Widgets de tempo
  • user-avatar
    Iniciar Sessão

    Previsão horária em Rychowo

    Hoje, 19 Dezembro, Quarta-feira

    Tempo Temperatura Precipitação Vento Pressão Humidade
    00:00 -1°C° 0 mm 4 m/s 764 mmHg 96%
    01:00 -1°C° 0 mm 4 m/s 764 mmHg 96%
    02:00 -1°C° 0 mm 4 m/s 763 mmHg 95%
    03:00 -1°C° 0 mm 4 m/s 763 mmHg 95%
    04:00 -1°C° 0 mm 4 m/s 763 mmHg 94%
    05:00 -1°C° 0 mm 5 m/s 762 mmHg 93%
    06:00 -1°C° 0 mm 5 m/s 762 mmHg 92%
    07:00 -3°C° 0 mm 6 m/s 762 mmHg 91%
    08:00 -3°C° 0 mm 6 m/s 761 mmHg 86%
    09:00 -2°C° 0 mm 7 m/s 761 mmHg 82%
    10:00 -2°C° 0 mm 7 m/s 761 mmHg 78%
    11:00 -2°C° 0 mm 7 m/s 760 mmHg 76%
    12:00 -2°C° 0 mm 7 m/s 760 mmHg 75%
    13:00 -1°C° 0 mm 7 m/s 759 mmHg 74%
    14:00 -2°C° 0 mm 7 m/s 759 mmHg 76%
    15:00 -2°C° 0 mm 7 m/s 759 mmHg 78%
    16:00 -2°C° 0 mm 6 m/s 758 mmHg 80%
    17:00 -2°C° 0 mm 6 m/s 758 mmHg 80%
    18:00 -2°C° 0 mm 6 m/s 758 mmHg 80%
    19:00 -2°C° 0 mm 6 m/s 758 mmHg 80%
    20:00 -1°C° 0 mm 5 m/s 758 mmHg 80%
    21:00 -1°C° 0 mm 5 m/s 758 mmHg 81%
    22:00 -1°C° 0 mm 5 m/s 758 mmHg 82%
    23:00 -1°C° 0.1 mm 5 m/s 758 mmHg 83%

    Amanhã, 20 Dezembro, Quinta-feira

    Tempo Temperatura Precipitação Vento Pressão Humidade
    00:00 -1°C° 0.1 mm 4 m/s 758 mmHg 85%
    01:00 -1°C° 0.1 mm 4 m/s 758 mmHg 86%
    02:00 -1°C° 0.4 mm 4 m/s 758 mmHg 88%
    03:00 -1°C° 0.4 mm 4 m/s 757 mmHg 91%
    04:00 -1°C° 0.4 mm 4 m/s 757 mmHg 93%
    05:00 -1°C° 0.5 mm 4 m/s 757 mmHg 93%
    06:00 -1°C° 0.5 mm 4 m/s 757 mmHg 93%
    07:00 -1°C° 0.5 mm 4 m/s 757 mmHg 94%
    08:00 -1°C° 0.2 mm 4 m/s 757 mmHg 94%
    09:00 -1°C° 0.2 mm 4 m/s 757 mmHg 94%
    10:00 -1°C° 0.2 mm 4 m/s 757 mmHg 93%
    11:00 0°C° 0.1 mm 3 m/s 757 mmHg 93%
    12:00 0°C° 0.1 mm 3 m/s 757 mmHg 93%
    13:00 +1°C° 0.1 mm 3 m/s 756 mmHg 93%
    14:00 0°C° 0.1 mm 3 m/s 756 mmHg 94%
    15:00 0°C° 0.1 mm 3 m/s 756 mmHg 94%
    16:00 0°C° 0.1 mm 3 m/s 756 mmHg 95%
    17:00 0°C° 0.4 mm 3 m/s 756 mmHg 95%
    18:00 0°C° 0.4 mm 3 m/s 756 mmHg 95%
    19:00 0°C° 0.4 mm 4 m/s 756 mmHg 95%
    20:00 0°C° 0.2 mm 4 m/s 756 mmHg 96%
    21:00 +1°C° 0.2 mm 3 m/s 756 mmHg 96%
    22:00 +1°C° 0.2 mm 3 m/s 756 mmHg 96%
    23:00 +1°C° 0 mm 3 m/s 756 mmHg 96%

    Depois de amanhã, 21 Dezembro, Sexta-feira

    Tempo Temperatura Precipitação Vento Pressão Humidade
    00:00 0°C° 0 mm 3 m/s 755 mmHg 96%
    01:00 -1°C° 0 mm 4 m/s 755 mmHg 96%
    02:00 -1°C° 0 mm 4 m/s 755 mmHg 96%
    03:00 -1°C° 0 mm 4 m/s 754 mmHg 96%
    04:00 -1°C° 0 mm 4 m/s 754 mmHg 96%
    05:00 0°C° 0 mm 4 m/s 754 mmHg 96%
    06:00 0°C° 0 mm 4 m/s 754 mmHg 95%
    07:00 0°C° 0 mm 4 m/s 753 mmHg 95%
    08:00 0°C° 0 mm 4 m/s 753 mmHg 95%
    09:00 +1°C° 0 mm 4 m/s 753 mmHg 95%
    10:00 +1°C° 0 mm 4 m/s 752 mmHg 95%
    11:00 +1°C° 0 mm 5 m/s 752 mmHg 94%
    12:00 +1°C° 0 mm 5 m/s 751 mmHg 94%
    13:00 +1°C° 0 mm 5 m/s 751 mmHg 93%
    14:00 +1°C° 0.1 mm 5 m/s 750 mmHg 93%
    15:00 +1°C° 0.1 mm 5 m/s 749 mmHg 94%
    16:00 +1°C° 0.1 mm 6 m/s 748 mmHg 94%
    17:00 +1°C° 0.8 mm 6 m/s 747 mmHg 93%
    18:00 +1°C° 0.8 mm 6 m/s 746 mmHg 93%
    19:00 +1°C° 0.8 mm 6 m/s 745 mmHg 93%
    20:00 +1°C° 0.6 mm 6 m/s 744 mmHg 93%
    21:00 +1°C° 0.6 mm 6 m/s 744 mmHg 93%
    22:00 +1°C° 0.6 mm 6 m/s 743 mmHg 93%
    23:00 +2°C° 0.8 mm 6 m/s 743 mmHg 91%

    22 Dezembro, Sábado

    Tempo Temperatura Precipitação Vento Pressão Humidade
    00:00 +3°C° 0.8 mm 7 m/s 743 mmHg 88%
    01:00 +4°C° 0.8 mm 8 m/s 743 mmHg 86%
    02:00 +4°C° 0.4 mm 8 m/s 743 mmHg 84%
    03:00 +5°C° 0.4 mm 9 m/s 742 mmHg 83%
    04:00 +5°C° 0.4 mm 9 m/s 742 mmHg 81%
    05:00 +5°C° 0.3 mm 9 m/s 742 mmHg 81%
    06:00 +5°C° 0.3 mm 9 m/s 742 mmHg 82%
    07:00 +5°C° 0.3 mm 9 m/s 742 mmHg 82%
    08:00 +5°C° 0.1 mm 9 m/s 743 mmHg 84%
    09:00 +5°C° 0.1 mm 8 m/s 743 mmHg 86%
    10:00 +4°C° 0.1 mm 8 m/s 743 mmHg 87%
    11:00 +4°C° 0.1 mm 7 m/s 743 mmHg 88%
    12:00 +4°C° 0.1 mm 7 m/s 744 mmHg 89%
    13:00 +4°C° 0.1 mm 6 m/s 744 mmHg 89%
    14:00 +4°C° 0 mm 6 m/s 744 mmHg 90%
    15:00 +5°C° 0 mm 5 m/s 745 mmHg 90%
    16:00 +4°C° 0 mm 4 m/s 746 mmHg 90%
    17:00 +4°C° 0.1 mm 4 m/s 746 mmHg 91%
    18:00 +4°C° 0.1 mm 3 m/s 747 mmHg 92%
    19:00 +4°C° 0.1 mm 2 m/s 748 mmHg 93%
    20:00 +4°C° 0.1 mm 2 m/s 748 mmHg 93%
    21:00 +4°C° 0.1 mm 2 m/s 748 mmHg 94%
    22:00 +5°C° 0.1 mm 1 m/s 749 mmHg 94%
    23:00 +5°C° 0.3 mm 1 m/s 749 mmHg 94%

    23 Dezembro, Domingo

    Tempo Temperatura Precipitação Vento Pressão Humidade
    00:00 +4°C° 0.3 mm 2 m/s 750 mmHg 94%
    01:00 +4°C° 0.3 mm 2 m/s 750 mmHg 94%
    02:00 +3°C° 0.6 mm 3 m/s 750 mmHg 93%
    03:00 +3°C° 0.6 mm 4 m/s 751 mmHg 92%
    04:00 +3°C° 0.6 mm 5 m/s 751 mmHg 90%
    05:00 +3°C° 0.3 mm 5 m/s 751 mmHg 90%
    06:00 +3°C° 0.3 mm 6 m/s 751 mmHg 89%
    07:00 +3°C° 0.3 mm 7 m/s 751 mmHg 88%
    08:00 +3°C° 0.2 mm 7 m/s 751 mmHg 87%
    09:00 +4°C° 0.2 mm 7 m/s 751 mmHg 85%
    10:00 +4°C° 0.2 mm 8 m/s 752 mmHg 84%
    11:00 +4°C° 0.3 mm 8 m/s 752 mmHg 83%
    12:00 +4°C° 0.3 mm 8 m/s 752 mmHg 83%
    13:00 +3°C° 0.3 mm 9 m/s 752 mmHg 82%
    14:00 +4°C° 0.4 mm 8 m/s 752 mmHg 83%
    15:00 +2°C° 0.4 mm 8 m/s 753 mmHg 84%
    16:00 +3°C° 0.4 mm 7 m/s 753 mmHg 85%
    17:00 +2°C° 0.3 mm 7 m/s 754 mmHg 84%
    18:00 +2°C° 0.3 mm 6 m/s 754 mmHg 84%
    19:00 +1°C° 0.3 mm 5 m/s 755 mmHg 83%
    20:00 +1°C° 0 mm 5 m/s 756 mmHg 83%
    21:00 0°C° 0 mm 4 m/s 757 mmHg 83%
    22:00 0°C° 0 mm 4 m/s 758 mmHg 83%
    23:00 +1°C° 0 mm 3 m/s 758 mmHg 84%

    24 Dezembro, Segunda-feira

    Tempo Temperatura Precipitação Vento Pressão Humidade
    00:00 +1°C° 0 mm 3 m/s 759 mmHg 84%
    01:00 +1°C° 0 mm 3 m/s 759 mmHg 84%
    02:00 +1°C° 0 mm 3 m/s 760 mmHg 85%
    03:00 +1°C° 0 mm 3 m/s 760 mmHg 86%
    04:00 +1°C° 0 mm 3 m/s 760 mmHg 87%
    05:00 +1°C° 0.1 mm 3 m/s 760 mmHg 88%
    06:00 +1°C° 0.1 mm 3 m/s 760 mmHg 89%
    07:00 +1°C° 0.1 mm 3 m/s 761 mmHg 90%
    08:00 +1°C° 0.1 mm 3 m/s 761 mmHg 90%
    09:00 +2°C° 0.1 mm 3 m/s 761 mmHg 90%
    10:00 +2°C° 0.1 mm 3 m/s 762 mmHg 90%
    11:00 +2°C° 0 mm 3 m/s 762 mmHg 89%
    12:00 +3°C° 0 mm 4 m/s 762 mmHg 88%
    13:00 +3°C° 0 mm 4 m/s 762 mmHg 87%
    14:00 +3°C° 0 mm 4 m/s 762 mmHg 88%
    15:00 +1°C° 0 mm 4 m/s 763 mmHg 88%
    16:00 +2°C° 0 mm 3 m/s 763 mmHg 89%
    17:00 +2°C° 0 mm 3 m/s 763 mmHg 88%
    18:00 +2°C° 0 mm 3 m/s 763 mmHg 88%
    19:00 +2°C° 0 mm 3 m/s 764 mmHg 87%
    20:00 +2°C° 0 mm 2 m/s 764 mmHg 87%
    21:00 +2°C° 0 mm 2 m/s 764 mmHg 88%
    22:00 +1°C° 0 mm 2 m/s 764 mmHg 88%
    23:00 +1°C° 0 mm 2 m/s 764 mmHg 89%
    Mostrar mais